Tiempo cada hora Barletta

Hoy, 3 Marzo, Miércoles

Tiempo Temperatura Precipitaciones Viento Presión Humedad
00:00 +7°C° 0 mm 3 mps 772 mmHg 87%
01:00 +5°C° 0 mm 3 mps 772 mmHg 89%
02:00 +5°C° 0 mm 3 mps 772 mmHg 88%
03:00 +5°C° 0 mm 3 mps 771 mmHg 87%
04:00 +5°C° 0 mm 4 mps 771 mmHg 85%
05:00 +5°C° 0 mm 4 mps 771 mmHg 83%
06:00 +5°C° 0 mm 3 mps 771 mmHg 81%
07:00 +5°C° 0 mm 3 mps 772 mmHg 77%
08:00 +8°C° 0 mm 3 mps 772 mmHg 69%
09:00 +10°C° 0 mm 3 mps 772 mmHg 61%
10:00 +12°C° 0 mm 3 mps 772 mmHg 53%
11:00 +13°C° 0 mm 3 mps 771 mmHg 50%
12:00 +15°C° 0 mm 2 mps 771 mmHg 46%
13:00 +16°C° 0 mm 2 mps 771 mmHg 43%
14:00 +16°C° 0 mm 2 mps 771 mmHg 45%
15:00 +16°C° 0 mm 2 mps 770 mmHg 47%
16:00 +16°C° 0 mm 2 mps 770 mmHg 50%
17:00 +14°C° 0 mm 2 mps 770 mmHg 56%
18:00 +12°C° 0 mm 2 mps 770 mmHg 63%
19:00 +10°C° 0 mm 1 mps 770 mmHg 70%
20:00 +10°C° 0 mm 1 mps 770 mmHg 70%
21:00 +9°C° 0 mm 1 mps 770 mmHg 71%
22:00 +9°C° 0 mm 1 mps 770 mmHg 71%
23:00 +9°C° 0 mm 1 mps 770 mmHg 72%

Mañana, 4 Marzo, Jueves

Tiempo Temperatura Precipitaciones Viento Presión Humedad
00:00 +8°C° 0 mm 1 mps 769 mmHg 73%
01:00 +8°C° 0 mm 1 mps 769 mmHg 74%
02:00 +8°C° 0 mm 1 mps 769 mmHg 74%
03:00 +8°C° 0 mm 1 mps 768 mmHg 74%
04:00 +8°C° 0 mm 1 mps 768 mmHg 74%
05:00 +8°C° 0 mm 1 mps 768 mmHg 73%
06:00 +8°C° 0 mm 1 mps 767 mmHg 72%
07:00 +8°C° 0 mm 1 mps 767 mmHg 71%
08:00 +10°C° 0 mm 1 mps 767 mmHg 65%
09:00 +13°C° 0 mm 1 mps 767 mmHg 59%
10:00 +15°C° 0 mm 1 mps 767 mmHg 52%
11:00 +16°C° 0 mm 1 mps 767 mmHg 50%
12:00 +18°C° 0 mm 1 mps 766 mmHg 47%
13:00 +19°C° 0 mm 1 mps 766 mmHg 45%
14:00 +17°C° 0 mm 2 mps 765 mmHg 47%
15:00 +17°C° 0 mm 2 mps 765 mmHg 49%
16:00 +17°C° 0 mm 3 mps 764 mmHg 52%
17:00 +14°C° 0 mm 3 mps 764 mmHg 59%
18:00 +12°C° 0 mm 3 mps 764 mmHg 66%
19:00 +10°C° 0 mm 3 mps 764 mmHg 73%
20:00 +10°C° 0 mm 3 mps 764 mmHg 74%
21:00 +9°C° 0 mm 3 mps 764 mmHg 75%
22:00 +9°C° 0 mm 3 mps 764 mmHg 75%
23:00 +8°C° 0 mm 3 mps 764 mmHg 75%

Pasado mañana, 5 Marzo, Viernes

Tiempo Temperatura Precipitaciones Viento Presión Humedad
00:00 +8°C° 0 mm 3 mps 763 mmHg 75%
01:00 +8°C° 0 mm 3 mps 763 mmHg 74%
02:00 +7°C° 0 mm 3 mps 763 mmHg 74%
03:00 +7°C° 0 mm 3 mps 762 mmHg 73%
04:00 +5°C° 0 mm 3 mps 762 mmHg 73%
05:00 +7°C° 0 mm 3 mps 762 mmHg 72%
06:00 +7°C° 0 mm 3 mps 762 mmHg 71%
07:00 +7°C° 0 mm 3 mps 762 mmHg 70%
08:00 +9°C° 0 mm 2 mps 762 mmHg 64%
09:00 +12°C° 0 mm 2 mps 762 mmHg 58%
10:00 +14°C° 0 mm 2 mps 762 mmHg 52%
11:00 +15°C° 0 mm 2 mps 761 mmHg 49%
12:00 +16°C° 0 mm 2 mps 761 mmHg 45%
13:00 +18°C° 0 mm 1 mps 761 mmHg 42%
14:00 +17°C° 0 mm 2 mps 761 mmHg 46%
15:00 +16°C° 0 mm 2 mps 761 mmHg 50%
16:00 +16°C° 0 mm 3 mps 760 mmHg 54%
17:00 +14°C° 0 mm 2 mps 761 mmHg 61%
18:00 +13°C° 0 mm 2 mps 761 mmHg 67%
19:00 +11°C° 0 mm 1 mps 761 mmHg 74%
20:00 +11°C° 0 mm 1 mps 761 mmHg 74%
21:00 +11°C° 0 mm 1 mps 762 mmHg 75%
22:00 +10°C° 0 mm 1 mps 762 mmHg 75%
23:00 +9°C° 0 mm 2 mps 762 mmHg 76%

6 Marzo, Sábado

Tiempo Temperatura Precipitaciones Viento Presión Humedad
00:00 +9°C° 0 mm 2 mps 762 mmHg 77%
01:00 +8°C° 0 mm 3 mps 762 mmHg 78%
02:00 +8°C° 0 mm 3 mps 762 mmHg 77%
03:00 +8°C° 0 mm 3 mps 762 mmHg 77%
04:00 +7°C° 0 mm 3 mps 762 mmHg 77%
05:00 +8°C° 0 mm 3 mps 762 mmHg 77%
06:00 +8°C° 0 mm 3 mps 762 mmHg 77%
07:00 +8°C° 0 mm 3 mps 762 mmHg 77%
08:00 +10°C° 0 mm 3 mps 763 mmHg 73%
09:00 +12°C° 0 mm 3 mps 763 mmHg 69%
10:00 +14°C° 0 mm 3 mps 763 mmHg 64%
11:00 +16°C° 0 mm 3 mps 763 mmHg 63%
12:00 +16°C° 0 mm 3 mps 763 mmHg 61%
13:00 +17°C° 0 mm 3 mps 763 mmHg 60%
14:00 +16°C° 0.1 mm 3 mps 764 mmHg 63%
15:00 +16°C° 0.1 mm 3 mps 764 mmHg 67%
16:00 +14°C° 0.1 mm 4 mps 764 mmHg 70%
17:00 +13°C° 0.1 mm 4 mps 764 mmHg 75%
18:00 +12°C° 0.1 mm 3 mps 764 mmHg 80%
19:00 +11°C° 0.1 mm 3 mps 765 mmHg 85%
20:00 +11°C° 0.2 mm 3 mps 765 mmHg 86%
21:00 +11°C° 0.2 mm 3 mps 766 mmHg 87%
22:00 +11°C° 0.2 mm 3 mps 766 mmHg 88%
23:00 +10°C° 0.2 mm 3 mps 766 mmHg 90%

7 Marzo, Domingo

Tiempo Temperatura Precipitaciones Viento Presión Humedad
00:00 +10°C° 0.2 mm 3 mps 766 mmHg 91%
01:00 +10°C° 0.2 mm 3 mps 766 mmHg 93%
02:00 +9°C° 0.3 mm 3 mps 766 mmHg 93%
03:00 +9°C° 0.3 mm 3 mps 766 mmHg 93%
04:00 +8°C° 0.3 mm 4 mps 766 mmHg 94%
05:00 +8°C° 0.3 mm 4 mps 766 mmHg 93%
06:00 +8°C° 0.3 mm 4 mps 766 mmHg 91%
07:00 +7°C° 0.3 mm 4 mps 766 mmHg 90%
08:00 +9°C° 0 mm 3 mps 766 mmHg 87%
09:00 +9°C° 0 mm 3 mps 766 mmHg 83%
10:00 +10°C° 0 mm 3 mps 766 mmHg 80%
11:00 +11°C° 0 mm 3 mps 766 mmHg 77%
12:00 +11°C° 0 mm 3 mps 766 mmHg 75%
13:00 +12°C° 0 mm 3 mps 766 mmHg 72%
14:00 +12°C° 0 mm 3 mps 765 mmHg 72%
15:00 +11°C° 0 mm 4 mps 765 mmHg 72%
16:00 +11°C° 0 mm 4 mps 764 mmHg 72%
17:00 +10°C° 0 mm 3 mps 764 mmHg 76%
18:00 +9°C° 0 mm 3 mps 764 mmHg 80%
19:00 +8°C° 0 mm 3 mps 764 mmHg 84%
20:00 +7°C° 0 mm 2 mps 764 mmHg 85%
21:00 +7°C° 0 mm 2 mps 764 mmHg 87%
22:00 +6°C° 0 mm 2 mps 764 mmHg 88%
23:00 +6°C° 0 mm 2 mps 764 mmHg 88%

8 Marzo, Lunes

Tiempo Temperatura Precipitaciones Viento Presión Humedad
00:00 +6°C° 0 mm 2 mps 764 mmHg 88%
01:00 +6°C° 0 mm 2 mps 763 mmHg 89%
02:00 +5°C° 0 mm 2 mps 763 mmHg 89%
03:00 +6°C° 0 mm 1 mps 763 mmHg 89%
04:00 +6°C° 0 mm 1 mps 762 mmHg 89%
05:00 +6°C° 0 mm 1 mps 762 mmHg 89%
06:00 +7°C° 0 mm 1 mps 762 mmHg 88%
07:00 +6°C° 0 mm 2 mps 762 mmHg 88%
08:00 +9°C° 0 mm 1 mps 762 mmHg 81%
09:00 +11°C° 0 mm 1 mps 762 mmHg 74%
10:00 +13°C° 0 mm 1 mps 762 mmHg 68%
11:00 +14°C° 0 mm 1 mps 762 mmHg 66%
12:00 +14°C° 0 mm 2 mps 762 mmHg 65%
13:00 +15°C° 0 mm 2 mps 762 mmHg 63%
14:00 +14°C° 0 mm 3 mps 761 mmHg 65%
15:00 +13°C° 0 mm 3 mps 761 mmHg 67%
16:00 +13°C° 0 mm 4 mps 760 mmHg 70%
17:00 +12°C° 0.1 mm 4 mps 760 mmHg 74%
18:00 +11°C° 0.1 mm 4 mps 760 mmHg 79%
19:00 +10°C° 0.1 mm 4 mps 760 mmHg 83%
20:00 +10°C° 0.4 mm 4 mps 760 mmHg 84%
21:00 +10°C° 0.4 mm 3 mps 760 mmHg 85%
22:00 +10°C° 0.4 mm 3 mps 760 mmHg 86%
23:00 +10°C° 0.3 mm 3 mps 760 mmHg 88%
Mostrar más

Necesitamos Su Consentimiento

Meteoprog y nuestros Proveedores de Servicios pueden almacenar y acceder a sus datos personales como cookies, identificadores de dispositivo u otras tecnologías similares de su dispositivo y procesar dichos datos para personalizar contenido y anuncios, además de ofrecer funciones de redes sociales y analizar el tráfico.

  • Almacenar y/o acceder a información en su dispositivo

    Se puede almacenar o acceder a cookies, identificadores de dispositivo u otra información de su dispositivo para los fines anteriormente indicados.

  • Anuncios y contenido personalizados, medición de anuncios y contenido, percepciones del público, y desarrollo de productos

    Los anuncios y el contenido pueden personalizarse en base a su perfil. Se pueden añadir más datos para personalizar mejor los anuncios y contenidos. Se puede medir el rendimiento de los anuncios y contenidos. Se puede obtener la percepción sobre el público que ha visto los anuncios y contenidos. Dichos datos pueden usarse para desarrollar o mejorar la experiencia del usuario, sistemas y software.

Al hacer clic en ‘Estoy De Acuerdo’ usted permitirá el uso de las cookies, identificadores de dispositivo, balizas web u otras tecnologías similares indicadas. Su configuración puede cambiarse desde el navegador de su dispositivo.

Para ciertos fines, los intereses legítimos pueden ser considerados por encima del consentimiento. Puede leer más sobre ello en nuestra Política de Privacidad y Cookies.